Location: Bergnershof
(48.9468°N, 10.9431°E)
Time: 22:21:46
(UTC+00:00)

FALCON 9 DEB - Visible Passes

Search period start: 24 June 2021 00:00
Search period end: 04 July 2021 00:00
Orbit: 368 x 379 km, 53.0° (Epoch: 23 June)

Date Brightness Start Highest point End Pass type
(mag) Time Alt. Az. Time Alt. Az. Time Alt. Az.
24 Jun 2.8 00:04:36 10° WNW 00:07:44 84° NNE 00:10:51 10° ESE visible
24 Jun 4.3 01:40:50 10° W 01:43:05 18° SW 01:43:30 18° SSW visible
24 Jun 4.5 21:26:39 10° WNW 21:29:35 37° N 21:32:33 10° ENE visible
24 Jun 3.6 23:02:34 10° WNW 23:05:39 52° NNE 23:08:42 10° E visible
25 Jun 3.5 00:38:21 10° WNW 00:40:51 35° WSW 00:40:51 35° WSW visible
25 Jun 4.1 20:24:23 10° W 20:27:24 45° NNW 20:30:25 10° ENE visible
25 Jun 4.2 22:00:29 10° WNW 22:03:28 40° N 22:06:26 10° E visible
25 Jun 2.7 23:36:12 10° WNW 23:39:19 74° SSW 23:39:41 63° SSE visible
26 Jun 4.5 20:58:17 10° WNW 21:01:13 36° N 21:04:09 10° ENE visible
26 Jun 3.2 22:34:07 10° WNW 22:37:13 64° NNE 22:38:58 23° E visible
27 Jun 5.0 00:10:02 10° W 00:10:55 16° W 00:10:55 16° W visible
27 Jun 4.0 21:32:01 10° WNW 21:35:01 44° NNE 21:38:02 10° E visible
27 Jun 3.2 23:07:43 10° WNW 23:10:25 50° WSW 23:10:25 50° WSW visible
28 Jun 4.4 20:29:48 10° WNW 20:32:44 37° N 20:35:41 10° ENE visible
28 Jun 2.8 22:05:33 10° WNW 22:08:41 81° NNE 22:10:00 31° ESE visible
28 Jun 5.5 23:41:43 10° W 23:41:59 11° W 23:41:59 11° W visible
29 Jun 3.6 21:03:24 10° WNW 21:06:28 51° NNE 21:09:31 10° E visible
29 Jun 3.7 22:39:10 10° WNW 22:41:39 36° WSW 22:41:39 36° WSW visible
30 Jun 2.7 21:36:53 10° WNW 21:40:00 78° SSW 21:41:21 31° SE visible
01 Jul 3.3 20:34:41 10° WNW 20:37:47 61° NNE 20:40:52 10° E visible
01 Jul 4.1 22:10:34 10° W 22:13:04 28° SW 22:13:04 28° SW visible
02 Jul 3.0 21:08:09 10° WNW 21:11:13 57° SSW 21:12:50 24° SE visible
03 Jul 3.0 20:05:53 10° WNW 20:08:59 77° NNE 20:12:06 10° ESE visible
03 Jul 4.5 21:41:57 10° W 21:44:23 21° SW 21:44:36 20° SW visible
